Tracking 18980 objects as of 19-Feb-2018
HD Live streaming from Space Station
objects crossing your sky now

FENGYUN 1C DEB

Track FENGYUN 1C DEB now!
10-day predictions


NORAD ID: 29750
Int'l Code: 1999-025AQ
Perigee: 848.2 km
Apogee: 902.0 km
Inclination: 99.1 °
Period: 102.3 minutes
Semi major axis: 7246 km
RCS: 0.036 m2 (small)
Launch date: May 10, 1999
Source: People's Republic of China (PRC)
Launch site: Taiyaun Space Center, China (TSC)

Note: This is SATELLITE DEBRIS
aabbcc
Your satellite tracking list
Your tracking list is empty




NASA's NSSDC Master Catalog

Two Line Element Set (TLE):
1 29750U 99025AQ  18049.63345668 +.00000000 +00000-0 +26795-4 0  9994
2 29750 099.0814 073.6420 0037090 033.6607 089.2172 14.07488065569060
Source of the keplerian elements: AFSPC